Terminal Aerodrome Forecast
Issued by NWS Cleveland, OH

Home | Current Version | Previous Version | Graphics & Text | Print | Product List | Glossary On
Versions: 1 2 3 4 5 6 7 8 9 10 11 12 13 14
000
FTUS41 KCLE 011731
TAFERI
TAF
KERI 011731Z 0118/0218 26010KT P6SM BKN015
      TEMPO 0118/0121 SCT015 BKN035
     FM012100 28004KT P6SM BKN035
     FM020900 VRB03KT 5SM BR BKN020
     FM021400 05005KT P6SM BKN035=

USA.gov is the U.S. government's official web portal to all federal, state and local government web resources and services.